When you browse on this site, cookies collect data to enhance your experience and personalize the content and advertising you see.
Visit our Privacy Policy to learn more. By continuing to use the site, you agree to this use of cookies and data.

Hourly Weather Znamenskoe

Today, 7 July, Tuesday

Time Temperature Precipitation Wind Pressure Humidity
00:00 +20°C° 0 mm 1 mps 738 mmHg 85%
01:00 +20°C° 0 mm 1 mps 738 mmHg 86%
02:00 +20°C° 0 mm 1 mps 738 mmHg 87%
03:00 +19°C° 0 mm 2 mps 737 mmHg 90%
04:00 +19°C° 0 mm 2 mps 737 mmHg 91%
05:00 +20°C° 0 mm 2 mps 737 mmHg 91%
06:00 +20°C° 0 mm 2 mps 737 mmHg 91%
07:00 +22°C° 0 mm 3 mps 737 mmHg 88%
08:00 +24°C° 0 mm 3 mps 737 mmHg 86%
09:00 +26°C° 0 mm 3 mps 737 mmHg 83%
10:00 +27°C° 1 mm 3 mps 737 mmHg 77%
11:00 +29°C° 1 mm 3 mps 736 mmHg 71%
12:00 +30°C° 1 mm 3 mps 736 mmHg 65%
13:00 +30°C° 0 mm 4 mps 736 mmHg 64%
14:00 +32°C° 0 mm 4 mps 736 mmHg 64%
15:00 +32°C° 0 mm 4 mps 735 mmHg 64%
16:00 +30°C° 0.1 mm 4 mps 735 mmHg 69%
17:00 +30°C° 0.1 mm 4 mps 735 mmHg 74%
18:00 +29°C° 0.1 mm 4 mps 734 mmHg 79%
19:00 +28°C° 0.3 mm 4 mps 734 mmHg 82%
20:00 +27°C° 0.3 mm 4 mps 734 mmHg 85%
21:00 +26°C° 0.3 mm 4 mps 734 mmHg 87%
22:00 +25°C° 0 mm 4 mps 733 mmHg 86%
23:00 +23°C° 0 mm 4 mps 733 mmHg 85%

Tomorrow, 8 July, Wednesday

Time Temperature Precipitation Wind Pressure Humidity
00:00 +22°C° 0 mm 4 mps 733 mmHg 84%
01:00 +21°C° 0 mm 3 mps 733 mmHg 84%
02:00 +21°C° 0 mm 3 mps 733 mmHg 83%
03:00 +20°C° 0 mm 2 mps 733 mmHg 83%
04:00 +20°C° 0 mm 2 mps 733 mmHg 83%
05:00 +20°C° 0 mm 3 mps 732 mmHg 83%
06:00 +21°C° 0 mm 3 mps 732 mmHg 83%
07:00 +22°C° 0 mm 3 mps 732 mmHg 81%
08:00 +23°C° 0 mm 4 mps 732 mmHg 78%
09:00 +25°C° 0 mm 4 mps 732 mmHg 76%
10:00 +26°C° 0 mm 4 mps 732 mmHg 75%
11:00 +26°C° 0 mm 4 mps 733 mmHg 75%
12:00 +26°C° 0 mm 3 mps 733 mmHg 74%
13:00 +26°C° 0.2 mm 4 mps 733 mmHg 76%
14:00 +26°C° 0.2 mm 4 mps 733 mmHg 78%
15:00 +26°C° 0.2 mm 4 mps 734 mmHg 81%
16:00 +23°C° 2.7 mm 4 mps 734 mmHg 86%
17:00 +22°C° 2.7 mm 4 mps 734 mmHg 91%
18:00 +20°C° 2.7 mm 4 mps 734 mmHg 96%
19:00 +19°C° 1.8 mm 4 mps 735 mmHg 96%
20:00 +19°C° 1.8 mm 3 mps 735 mmHg 96%
21:00 +18°C° 1.8 mm 3 mps 735 mmHg 96%
22:00 +17°C° 0.9 mm 3 mps 736 mmHg 96%
23:00 +16°C° 0.9 mm 3 mps 736 mmHg 96%

Day after tomorrow, 9 July, Thursday

Time Temperature Precipitation Wind Pressure Humidity
00:00 +16°C° 0.9 mm 3 mps 736 mmHg 96%
01:00 +15°C° 0.2 mm 4 mps 736 mmHg 96%
02:00 +14°C° 0.2 mm 4 mps 737 mmHg 96%
03:00 +14°C° 0.2 mm 5 mps 737 mmHg 95%
04:00 +14°C° 0 mm 5 mps 737 mmHg 95%
05:00 +13°C° 0 mm 5 mps 737 mmHg 94%
06:00 +13°C° 0 mm 5 mps 737 mmHg 94%
07:00 +14°C° 0 mm 5 mps 737 mmHg 91%
08:00 +14°C° 0 mm 5 mps 737 mmHg 89%
09:00 +15°C° 0 mm 4 mps 738 mmHg 86%
10:00 +17°C° 0 mm 4 mps 738 mmHg 81%
11:00 +18°C° 0 mm 4 mps 738 mmHg 75%
12:00 +20°C° 0 mm 4 mps 739 mmHg 69%
13:00 +20°C° 0 mm 4 mps 739 mmHg 68%
14:00 +21°C° 0 mm 4 mps 739 mmHg 67%
15:00 +22°C° 0 mm 4 mps 739 mmHg 65%
16:00 +21°C° 0.1 mm 4 mps 739 mmHg 68%
17:00 +21°C° 0.1 mm 3 mps 739 mmHg 71%
18:00 +21°C° 0.1 mm 3 mps 740 mmHg 73%
19:00 +19°C° 0 mm 3 mps 740 mmHg 78%
20:00 +17°C° 0.1 mm 3 mps 740 mmHg 82%
21:00 +14°C° 0.1 mm 3 mps 740 mmHg 87%
22:00 +14°C° 0 mm 3 mps 741 mmHg 89%
23:00 +13°C° 0 mm 3 mps 741 mmHg 90%

10 July, Friday

Time Temperature Precipitation Wind Pressure Humidity
00:00 +12°C° 0 mm 3 mps 741 mmHg 92%
01:00 +12°C° 0 mm 3 mps 742 mmHg 93%
02:00 +12°C° 0 mm 3 mps 742 mmHg 93%
03:00 +11°C° 0 mm 3 mps 742 mmHg 93%
04:00 +12°C° 0 mm 3 mps 742 mmHg 92%
05:00 +12°C° 0 mm 3 mps 743 mmHg 91%
06:00 +12°C° 0 mm 3 mps 743 mmHg 90%
07:00 +14°C° 0 mm 3 mps 743 mmHg 85%
08:00 +16°C° 0 mm 3 mps 744 mmHg 80%
09:00 +18°C° 0 mm 3 mps 744 mmHg 75%
10:00 +19°C° 0 mm 3 mps 744 mmHg 70%
11:00 +20°C° 0 mm 3 mps 745 mmHg 66%
12:00 +21°C° 0 mm 3 mps 745 mmHg 61%
13:00 +21°C° 0 mm 3 mps 745 mmHg 60%
14:00 +22°C° 0 mm 3 mps 745 mmHg 59%
15:00 +22°C° 0 mm 3 mps 745 mmHg 58%
16:00 +22°C° 0 mm 3 mps 745 mmHg 62%
17:00 +21°C° 0 mm 2 mps 745 mmHg 65%
18:00 +21°C° 0 mm 2 mps 745 mmHg 69%
19:00 +20°C° 0 mm 2 mps 745 mmHg 73%
20:00 +18°C° 0 mm 2 mps 745 mmHg 77%
21:00 +16°C° 0 mm 2 mps 746 mmHg 81%
22:00 +16°C° 0 mm 2 mps 746 mmHg 81%
23:00 +15°C° 0 mm 2 mps 746 mmHg 82%

11 July, Saturday

Time Temperature Precipitation Wind Pressure Humidity
00:00 +14°C° 0 mm 2 mps 746 mmHg 82%
01:00 +14°C° 0 mm 2 mps 746 mmHg 82%
02:00 +13°C° 0 mm 1 mps 746 mmHg 82%
03:00 +13°C° 0 mm 1 mps 746 mmHg 81%
04:00 +14°C° 0 mm 2 mps 746 mmHg 82%
05:00 +14°C° 0 mm 2 mps 746 mmHg 83%
06:00 +15°C° 0 mm 2 mps 747 mmHg 84%
07:00 +16°C° 0 mm 2 mps 747 mmHg 81%
08:00 +18°C° 0 mm 3 mps 746 mmHg 78%
09:00 +20°C° 0 mm 3 mps 746 mmHg 76%
10:00 +21°C° 0 mm 4 mps 746 mmHg 72%
11:00 +22°C° 0 mm 4 mps 746 mmHg 68%
12:00 +23°C° 0 mm 4 mps 746 mmHg 65%
13:00 +23°C° 0 mm 4 mps 746 mmHg 65%
14:00 +23°C° 0 mm 4 mps 746 mmHg 64%
15:00 +25°C° 0 mm 4 mps 745 mmHg 64%
16:00 +23°C° 0 mm 4 mps 745 mmHg 67%
17:00 +23°C° 0 mm 4 mps 745 mmHg 70%
18:00 +24°C° 0 mm 3 mps 744 mmHg 74%
19:00 +21°C° 0 mm 3 mps 744 mmHg 77%
20:00 +20°C° 0 mm 3 mps 744 mmHg 80%
21:00 +18°C° 0 mm 3 mps 744 mmHg 83%
22:00 +18°C° 0 mm 3 mps 744 mmHg 84%
23:00 +17°C° 0 mm 3 mps 744 mmHg 85%

12 July, Sunday

Time Temperature Precipitation Wind Pressure Humidity
00:00 +17°C° 0 mm 3 mps 744 mmHg 85%
01:00 +16°C° 0 mm 3 mps 744 mmHg 86%
02:00 +16°C° 0 mm 3 mps 744 mmHg 86%
03:00 +16°C° 0 mm 3 mps 744 mmHg 87%
04:00 +16°C° 0 mm 3 mps 744 mmHg 87%
05:00 +17°C° 0 mm 3 mps 744 mmHg 88%
06:00 +17°C° 0 mm 2 mps 744 mmHg 88%
07:00 +18°C° 0 mm 2 mps 744 mmHg 86%
08:00 +19°C° 0 mm 2 mps 744 mmHg 84%
09:00 +21°C° 0 mm 2 mps 744 mmHg 81%
10:00 +21°C° 0.1 mm 2 mps 744 mmHg 80%
11:00 +23°C° 0.1 mm 1 mps 744 mmHg 80%
12:00 +23°C° 0.1 mm 1 mps 744 mmHg 79%
13:00 +24°C° 1 mm 1 mps 744 mmHg 78%
14:00 +24°C° 1 mm 1 mps 743 mmHg 78%
15:00 +25°C° 1 mm 2 mps 743 mmHg 77%
16:00 +24°C° 1.6 mm 2 mps 743 mmHg 79%
17:00 +24°C° 1.6 mm 2 mps 742 mmHg 81%
18:00 +24°C° 1.6 mm 2 mps 742 mmHg 82%
19:00 +23°C° 0.6 mm 2 mps 742 mmHg 85%
20:00 +20°C° 0.6 mm 2 mps 742 mmHg 88%
21:00 +19°C° 0.6 mm 2 mps 742 mmHg 91%
22:00 +19°C° 0.3 mm 2 mps 742 mmHg 92%
23:00 +19°C° 0.3 mm 1 mps 741 mmHg 93%
Show more